Hourly Data Report for November 29, 2020

MUSKOKA
ONTARIO
Current Station Operator: NAVCAN

44°58'29.000" N
79°18'12.000" W
281.90 m
6115529
71532
YQA

Download Data

Hourly Data (November 2020)
Hourly Data Report for November 29, 2020
TIME
LST
Temp Definition
°C
Dew Point Definition
°C
Rel Hum Definition
%
Precip. Amount Definition
mm

Wind Dir Definition
10's deg

Wind Spd Definition
km/h
Visibility Definition
km
Stn Press Definition
kPa
Hmdx Definition


Wind Chill Definition


Weather Definition


00:00 1.7 -2.1 76 LegendMM 22 9 16.1 98.00     LegendNANA
01:00 -0.4 -3.1 82 LegendMM 19 9 16.1 97.96   -4 LegendNANA
02:00 -2.3 -3.1 94 LegendMM 18 5 16.1 98.00   -4 LegendNANA
03:00 -0.5 -2.3 88 LegendMM 22 11 16.1 98.00   -4 LegendNANA
04:00 -2.0 -3.2 92 LegendMM 17 8 16.1 97.97   -5 LegendNANA
05:00 -3.6 -4.0 97 LegendMM 15 8 16.1 97.97   -7 LegendNANA
06:00 -2.0 -2.8 94 LegendMM 19 5 16.1 97.98   -4 LegendNANA
07:00 -1.8 -2.6 94 LegendMM 18 5 16.1 98.00   -4 LegendNANA
08:00 -3.2 -3.6 97 LegendMM 13 4 16.1 98.05   -5 LegendNANA
09:00 0.0 -1.1 92 LegendMM 14 4 16.1 98.04   -1 LegendNANA
10:00 3.2 0.3 81 LegendMM 19 9 16.1 98.07     LegendNANA
11:00 4.8 0.8 76 LegendMM 17 9 16.1 98.01     LegendNANA
12:00 6.2 1.4 71 LegendMM 19 9 16.1 97.93     LegendNANA
13:00 7.1 1.7 68 LegendMM 16 13 16.1 97.90     LegendNANA
14:00 7.4 1.5 66 LegendMM 17 15 16.1 97.88     LegendNANA
15:00 6.3 1.2 70 LegendMM 15 13 16.1 97.80     LegendNANA
16:00 5.8 1.3 73 LegendMM 14 11 16.1 97.79     LegendNANA
17:00 4.3 1.1 79 LegendMM 14 9 16.1 97.76     LegendNANA
18:00 3.9 1.1 82 LegendMM 15 9 16.1 97.75     LegendNANA
19:00 2.0 0.4 89 LegendMM 16 11 16.1 97.73     LegendNANA
20:00 2.1 1.1 93 LegendMM 14 5 16.1 97.71     LegendNANA
21:00 1.8 0.9 94 LegendMM 17 9 16.1 97.69     LegendNANA
22:00 2.1 1.2 94 LegendMM 16 9 16.1 97.69     LegendNANA
23:00 2.8 1.8 93 LegendMM 16 13 16.1 97.61     LegendNANA

Notes on Data Quality.

Legend

  • E = Estimated
  • M = Missing
  • NA = Not Available*
  • [empty] = Indicates an unobserved value
Date modified: